QPF
0.21 0.21 0.20 0.16 0.12 0.11 0.11 0.11 0.09 0.05 0.04 0.04 0.05 0.07 0.09 0.10 0.11 0.10 0.09 0.09 0.07 0.04 0.03 0.03 0.04 0.03 0.02 0.02 0.02 0.02 0.02 0.01 0.01 0.01 0.01 0.02 0.01 0.02
0.31 0.30 0.27 0.24 0.18 0.14 0.13 0.13 0.11 0.09 0.06 0.05 0.04 0.05 0.06 0.06 0.08 0.08 0.07 0.06 0.05 0.05 0.04 0.05 0.06 0.03 0.02 0.01 0.01 0.01 0.00 0.01 0.01 0.01 0.01 0.01 0.01 0.02
0.30 0.30 0.26 0.25 0.24 0.21 0.18 0.16 0.14 0.11 0.09 0.07 0.05 0.05 0.05 0.04 0.04 0.05 0.05 0.06 0.06 0.07 0.08 0.07 0.06 0.05 0.04 0.02 0.01 0.01 0.00 0.01 0.01 0.01 0.01 0.02 0.02 0.03
0.21 0.24 0.26 0.27 0.28 0.28 0.24 0.20 0.16 0.13 0.10 0.09 0.06 0.05 0.05 0.04 0.04 0.04 0.04 0.05 0.06 0.06 0.07 0.07 0.07 0.05 0.04 0.03 0.02 0.01 0.00 0.00 0.00 0.00 0.01 0.01 0.01 0.02
0.21 0.22 0.23 0.24 0.22 0.20 0.20 0.20 0.18 0.14 0.09 0.06 0.05 0.05 0.05 0.05 0.05 0.05 0.05 0.06 0.07 0.07 0.08 0.09 0.08 0.07 0.06 0.04 0.03 0.02 0.01 0.00 0.00 0.00 0.00 0.00 0.01 0.01
0.14 0.16 0.17 0.17 0.17 0.18 0.16 0.14 0.13 0.11 0.07 0.05 0.04 0.04 0.04 0.04 0.04 0.05 0.06 0.06 0.08 0.08 0.08 0.08 0.08 0.07 0.05 0.03 0.02 0.02 0.01 0.01 0.00 0.00 0.00 0.00 0.00 0.01
0.13 0.12 0.14 0.15 0.16 0.16 0.15 0.12 0.09 0.07 0.05 0.04 0.03 0.03 0.02 0.03 0.03 0.05 0.07 0.10 0.09 0.08 0.07 0.05 0.04 0.04 0.03 0.02 0.02 0.02 0.01 0.01 0.01 0.01 0.00 0.00 0.00 0.01
0.12 0.11 0.12 0.12 0.11 0.12 0.12 0.09 0.07 0.05 0.04 0.03 0.03 0.02 0.01 0.03 0.04 0.05 0.06 0.07 0.08 0.07 0.06 0.05 0.03 0.03 0.02 0.01 0.02 0.02 0.02 0.02 0.02 0.01 0.01 0.00 0.00 0.00
0.11 0.11 0.11 0.11 0.11 0.09 0.08 0.06 0.05 0.05 0.05 0.04 0.03 0.02 0.02 0.02 0.03 0.04 0.05 0.05 0.04 0.04 0.04 0.04 0.02 0.02 0.01 0.01 0.01 0.01 0.01 0.01 0.01 0.00 0.00 0.00 0.00 0.00
0.09 0.09 0.08 0.08 0.10 0.08 0.05 0.05 0.05 0.06 0.06 0.04 0.05 0.04 0.03 0.03 0.03 0.04 0.05 0.06 0.04 0.04 0.04 0.03 0.02 0.01 0.01 0.00 0.01 0.00 0.00 0.00 0.00 0.01 0.01 0.01 0.00 0.00
0.07 0.07 0.07 0.06 0.07 0.06 0.05 0.07 0.06 0.07 0.07 0.07 0.06 0.05 0.05 0.04 0.04 0.04 0.03 0.03 0.04 0.04 0.03 0.02 0.01 0.01 0.01 0.00 0.00 0.01 0.01 0.00 0.01 0.01 0.01 0.00 0.00 0.00
0.09 0.07 0.11 0.10 0.07 0.06 0.05 0.06 0.06 0.05 0.04 0.04 0.05 0.05 0.05 0.04 0.05 0.04 0.02 0.02 0.02 0.03 0.01 0.01 0.00 0.00 0.00 0.00 0.00 0.00 0.00 0.00 0.00 0.00 0.00 0.00 0.00 0.00
0.10 0.08 0.09 0.09 0.07 0.06 0.06 0.05 0.05 0.05 0.05 0.05 0.06 0.06 0.04 0.03 0.03 0.03 0.02 0.02 0.02 0.02 0.01 0.00 0.00 0.00 0.00 0.00 0.00 0.00 0.00 0.00 0.00 0.00 0.00 0.00 0.00 0.00
0.11 0.08 0.07 0.08 0.07 0.06 0.06 0.07 0.07 0.06 0.06 0.07 0.06 0.04 0.03 0.03 0.03 0.03 0.02 0.02 0.02 0.01 0.01 0.00 0.00 0.00 0.00 0.00 0.00 0.00 0.00 0.00 0.00 0.00 0.00 0.00 0.00 0.00
0.11 0.10 0.08 0.07 0.05 0.05 0.07 0.07 0.06 0.05 0.05 0.05 0.05 0.03 0.02 0.02 0.02 0.02 0.02 0.02 0.01 0.01 0.01 0.00 0.00 0.00 0.00 0.00 0.00 0.00 0.00 0.00 0.00 0.00 0.00 0.00 0.00 0.00
0.08 0.08 0.07 0.06 0.05 0.04 0.06 0.06 0.05 0.05 0.04 0.04 0.05 0.03 0.01 0.01 0.01 0.01 0.01 0.01 0.01 0.01 0.00 0.00 0.00 0.00 0.00 0.00 0.00 0.00 0.00 0.00 0.00 0.00 0.00 0.00 0.00 0.00
0.05 0.04 0.04 0.04 0.04 0.04 0.04 0.05 0.04 0.04 0.04 0.04 0.04 0.02 0.01 0.01 0.01 0.01 0.01 0.01 0.00 0.00 0.00 0.00 0.00 0.00 0.00 0.00 0.00 0.00 0.00 0.00 0.00 0.00 0.00 0.00 0.00 0.00
0.05 0.04 0.02 0.02 0.02 0.03 0.04 0.04 0.03 0.03 0.03 0.02 0.02 0.02 0.02 0.01 0.01 0.01 0.01 0.00 0.00 0.00 0.00 0.00 0.00 0.00 0.00 0.00 0.00 0.00 0.00 0.00 0.00 0.00 0.00 0.00 0.00 0.00
0.03 0.02 0.01 0.01 0.01 0.02 0.02 0.02 0.01 0.02 0.02 0.01 0.01 0.01 0.01 0.01 0.01 0.01 0.00 0.00 0.00 0.00 0.00 0.00 0.00 0.00 0.00 0.00 0.00 0.00 0.00 0.00 0.00 0.00 0.00 0.00 0.00 0.00
0.01 0.01 0.01 0.01 0.01 0.01 0.01 0.01 0.01 0.01 0.01 0.01 0.00 0.00 0.01 0.00 0.00 0.00 0.00 0.00 0.00 0.00 0.00 0.00 0.00 0.00 0.00 0.00 0.00 0.00 0.00 0.00 0.00 0.00 0.00 0.00 0.00 0.00
0.00 0.00 0.00 0.00 0.00 0.00 0.00 0.00 0.00 0.00 0.00 0.00 0.00 0.00 0.00 0.00 0.00 0.00 0.00 0.00 0.00 0.00 0.00 0.00 0.00 0.00 0.00 0.00 0.00 0.00 0.00 0.00 0.00 0.00 0.00 0.00 0.00 0.00
0.00 0.00 0.00 0.00 0.00 0.00 0.00 0.00 0.00 0.00 0.00 0.00 0.00 0.00 0.00 0.00 0.00 0.00 0.00 0.00 0.00 0.00 0.00 0.00 0.00 0.00 0.00 0.00 0.00 0.00 0.00 0.00 0.00 0.00 0.00 0.00 0.00 0.00
0.00 0.00 0.00 0.00 0.00 0.00 0.00 0.00 0.00 0.00 0.00 0.00 0.00 0.00 0.00 0.00 0.00 0.00 0.00 0.00 0.00 0.00 0.00 0.00 0.00 0.00 0.00 0.00 0.00 0.00 0.00 0.00 0.00 0.00 0.00 0.00 0.00 0.00
MSLP
1010.82 1011.32 1011.87 1012.46 1013.04 1013.61 1014.12 1014.56 1014.94 1015.23 1015.47 1015.64 1015.77 1015.88 1015.98 1016.10 1016.24 1016.42 1016.66 1016.94 1017.27 1017.62 1017.98 1018.34 1018.66 1018.95 1019.19 1019.38 1019.54 1019.68 1019.81 1019.94 1020.06 1020.18 1020.29 1020.37 1020.42 1020.43
1010.16 1010.58 1011.08 1011.64 1012.23 1012.82 1013.39 1013.93 1014.41 1014.82 1015.16 1015.44 1015.65 1015.81 1015.95 1016.08 1016.22 1016.39 1016.61 1016.88 1017.20 1017.56 1017.93 1018.30 1018.64 1018.95 1019.20 1019.40 1019.56 1019.69 1019.81 1019.92 1020.03 1020.15 1020.25 1020.33 1020.39 1020.41
1009.64 1009.97 1010.39 1010.90 1011.47 1012.07 1012.70 1013.31 1013.89 1014.42 1014.88 1015.27 1015.58 1015.82 1016.01 1016.18 1016.33 1016.51 1016.73 1017.00 1017.32 1017.68 1018.06 1018.44 1018.80 1019.11 1019.37 1019.57 1019.72 1019.84 1019.95 1020.04 1020.13 1020.23 1020.32 1020.41 1020.47 1020.50
1009.30 1009.52 1009.86 1010.30 1010.83 1011.43 1012.08 1012.74 1013.41 1014.04 1014.61 1015.11 1015.53 1015.86 1016.13 1016.35 1016.55 1016.75 1016.99 1017.27 1017.61 1017.98 1018.37 1018.76 1019.12 1019.44 1019.70 1019.90 1020.05 1020.15 1020.24 1020.31 1020.39 1020.47 1020.55 1020.63 1020.69 1020.74
1009.15 1009.28 1009.52 1009.88 1010.35 1010.92 1011.56 1012.26 1012.97 1013.68 1014.34 1014.93 1015.44 1015.87 1016.22 1016.52 1016.78 1017.04 1017.32 1017.64 1018.00 1018.40 1018.81 1019.22 1019.60 1019.93 1020.19 1020.39 1020.52 1020.62 1020.68 1020.74 1020.79 1020.86 1020.92 1021.00 1021.06 1021.11
1009.18 1009.22 1009.38 1009.66 1010.06 1010.57 1011.18 1011.86 1012.58 1013.32 1014.03 1014.69 1015.28 1015.79 1016.23 1016.60 1016.95 1017.28 1017.63 1018.00 1018.42 1018.86 1019.31 1019.75 1020.15 1020.50 1020.77 1020.97 1021.10 1021.18 1021.23 1021.27 1021.31 1021.36 1021.42 1021.48 1021.54 1021.59
1009.36 1009.34 1009.42 1009.62 1009.94 1010.38 1010.92 1011.55 1012.24 1012.97 1013.68 1014.37 1015.01 1015.58 1016.09 1016.55 1016.98 1017.39 1017.83 1018.28 1018.77 1019.27 1019.78 1020.27 1020.70 1021.07 1021.36 1021.57 1021.71 1021.79 1021.83 1021.86 1021.89 1021.92 1021.97 1022.02 1022.07 1022.11
1009.65 1009.59 1009.62 1009.75 1009.99 1010.34 1010.80 1011.35 1011.97 1012.64 1013.32 1014.00 1014.65 1015.25 1015.81 1016.34 1016.85 1017.35 1017.88 1018.42 1018.99 1019.57 1020.14 1020.68 1021.17 1021.58 1021.90 1022.12 1022.27 1022.36 1022.41 1022.43 1022.45 1022.48 1022.51 1022.56 1022.59 1022.62
1010.02 1009.95 1009.95 1010.03 1010.19 1010.46 1010.82 1011.27 1011.80 1012.38 1013.00 1013.63 1014.25 1014.86 1015.45 1016.02 1016.59 1017.17 1017.77 1018.40 1019.05 1019.71 1020.35 1020.95 1021.49 1021.94 1022.30 1022.56 1022.73 1022.83 1022.89 1022.92 1022.95 1022.97 1023.00 1023.03 1023.06 1023.07
1010.43 1010.38 1010.37 1010.41 1010.53 1010.72 1011.00 1011.35 1011.78 1012.27 1012.80 1013.36 1013.93 1014.51 1015.09 1015.68 1016.29 1016.92 1017.58 1018.27 1018.98 1019.70 1020.40 1021.06 1021.64 1022.14 1022.54 1022.83 1023.04 1023.17 1023.25 1023.29 1023.33 1023.36 1023.39 1023.41 1023.43 1023.43
1010.88 1010.85 1010.85 1010.89 1010.98 1011.12 1011.33 1011.61 1011.95 1012.35 1012.79 1013.27 1013.78 1014.31 1014.87 1015.44 1016.05 1016.70 1017.38 1018.10 1018.84 1019.59 1020.33 1021.02 1021.64 1022.18 1022.61 1022.95 1023.19 1023.35 1023.46 1023.53 1023.59 1023.63 1023.66 1023.69 1023.71 1023.70
1011.34 1011.34 1011.37 1011.42 1011.50 1011.63 1011.80 1012.03 1012.31 1012.64 1013.01 1013.43 1013.87 1014.35 1014.86 1015.40 1015.98 1016.60 1017.27 1017.98 1018.71 1019.46 1020.20 1020.90 1021.54 1022.09 1022.56 1022.93 1023.20 1023.40 1023.55 1023.65 1023.73 1023.79 1023.84 1023.88 1023.90 1023.88
1011.81 1011.84 1011.89 1011.97 1012.07 1012.20 1012.37 1012.59 1012.84 1013.13 1013.46 1013.83 1014.22 1014.65 1015.10 1015.59 1016.12 1016.69 1017.31 1017.97 1018.66 1019.37 1020.08 1020.75 1021.38 1021.94 1022.42 1022.81 1023.12 1023.35 1023.54 1023.67 1023.78 1023.87 1023.94 1023.99 1024.02 1024.01
1012.27 1012.32 1012.40 1012.51 1012.64 1012.80 1012.99 1013.21 1013.47 1013.76 1014.08 1014.42 1014.79 1015.18 1015.59 1016.02 1016.48 1016.99 1017.53 1018.11 1018.73 1019.36 1020.01 1020.63 1021.22 1021.77 1022.24 1022.64 1022.97 1023.24 1023.45 1023.62 1023.77 1023.88 1023.98 1024.04 1024.08 1024.08
1012.73 1012.79 1012.88 1013.01 1013.17 1013.36 1013.59 1013.84 1014.12 1014.44 1014.77 1015.12 1015.48 1015.85 1016.22 1016.61 1017.02 1017.44 1017.90 1018.39 1018.91 1019.46 1020.02 1020.57 1021.11 1021.61 1022.06 1022.46 1022.80 1023.09 1023.32 1023.52 1023.69 1023.83 1023.95 1024.03 1024.08 1024.10
1013.18 1013.23 1013.33 1013.47 1013.65 1013.87 1014.12 1014.41 1014.73 1015.07 1015.44 1015.81 1016.18 1016.55 1016.92 1017.27 1017.63 1017.99 1018.37 1018.77 1019.19 1019.64 1020.11 1020.58 1021.05 1021.50 1021.92 1022.30 1022.63 1022.92 1023.17 1023.38 1023.57 1023.72 1023.85 1023.95 1024.01 1024.03
1013.63 1013.67 1013.76 1013.89 1014.07 1014.29 1014.56 1014.87 1015.22 1015.59 1015.99 1016.39 1016.80 1017.18 1017.55 1017.89 1018.22 1018.54 1018.85 1019.18 1019.52 1019.88 1020.26 1020.65 1021.05 1021.44 1021.81 1022.16 1022.47 1022.75 1022.99 1023.21 1023.39 1023.55 1023.68 1023.78 1023.84 1023.86
1014.07 1014.09 1014.16 1014.28 1014.43 1014.64 1014.90 1015.21 1015.56 1015.96 1016.38 1016.81 1017.24 1017.65 1018.03 1018.38 1018.70 1019.00 1019.28 1019.55 1019.83 1020.12 1020.43 1020.76 1021.09 1021.42 1021.74 1022.05 1022.33 1022.58 1022.80 1023.00 1023.16 1023.30 1023.42 1023.50 1023.56 1023.58
1014.49 1014.51 1014.55 1014.64 1014.76 1014.93 1015.16 1015.44 1015.78 1016.17 1016.60 1017.04 1017.49 1017.92 1018.33 1018.70 1019.03 1019.32 1019.59 1019.84 1020.08 1020.33 1020.59 1020.86 1021.14 1021.42 1021.70 1021.96 1022.20 1022.42 1022.60 1022.76 1022.89 1023.00 1023.08 1023.14 1023.17 1023.18
1014.87 1014.89 1014.92 1014.97 1015.06 1015.18 1015.36 1015.60 1015.90 1016.26 1016.67 1017.11 1017.56 1018.01 1018.44 1018.83 1019.17 1019.48 1019.76 1020.01 1020.24 1020.47 1020.70 1020.94 1021.19 1021.43 1021.66 1021.88 1022.08 1022.25 1022.39 1022.51 1022.59 1022.66 1022.70 1022.71 1022.71 1022.69
1015.18 1015.21 1015.24 1015.27 1015.31 1015.39 1015.52 1015.71 1015.96 1016.27 1016.65 1017.07 1017.51 1017.95 1018.39 1018.79 1019.16 1019.48 1019.78 1020.04 1020.28 1020.51 1020.74 1020.96 1021.19 1021.41 1021.61 1021.80 1021.96 1022.09 1022.18 1022.25 1022.29 1022.30 1022.29 1022.27 1022.23 1022.18
1015.36 1015.43 1015.47 1015.49 1015.51 1015.56 1015.64 1015.77 1015.97 1016.24 1016.57 1016.95 1017.37 1017.80 1018.22 1018.63 1019.01 1019.35 1019.66 1019.94 1020.20 1020.44 1020.67 1020.90 1021.12 1021.33 1021.52 1021.69 1021.82 1021.92 1021.98 1022.00 1021.99 1021.96 1021.91 1021.84 1021.77 1021.69
1015.38 1015.49 1015.56 1015.59 1015.61 1015.64 1015.70 1015.80 1015.95 1016.18 1016.46 1016.80 1017.18 1017.58 1017.99 1018.39 1018.76 1019.11 1019.43 1019.72 1019.99 1020.25 1020.50 1020.74 1020.96 1021.18 1021.37 1021.53 1021.65 1021.73 1021.76 1021.76 1021.72 1021.65 1021.57 1021.47 1021.37 1021.27
Thickness
5706 5708 5709 5711 5712 5714 5714 5713 5708 5703 5704 5710 5714 5719 5721 5721 5720 5718 5716 5715 5712 5710 5708 5706 5703 5701 5699 5696 5694 5692 5690 5688 5687 5684 5682 5680 5678 5676
5701 5702 5704 5705 5706 5708 5709 5709 5709 5705 5701 5705 5708 5712 5714 5715 5713 5712 5711 5709 5707 5705 5703 5700 5698 5695 5692 5690 5687 5685 5683 5681 5680 5678 5676 5674 5672 5671
5694 5696 5698 5699 5700 5701 5702 5702 5702 5701 5697 5698 5702 5704 5706 5706 5705 5704 5703 5702 5700 5698 5696 5694 5691 5688 5685 5683 5680 5678 5676 5675 5673 5671 5669 5668 5666 5664
5687 5688 5690 5693 5693 5695 5695 5695 5696 5697 5695 5692 5693 5695 5697 5698 5698 5696 5695 5694 5692 5690 5689 5687 5684 5681 5679 5676 5673 5671 5669 5667 5666 5665 5663 5661 5660 5657
5679 5682 5685 5686 5686 5688 5688 5689 5690 5691 5691 5689 5687 5689 5689 5689 5689 5687 5686 5685 5683 5681 5679 5677 5675 5673 5670 5668 5666 5664 5662 5660 5659 5657 5656 5654 5652 5650
5672 5676 5678 5680 5681 5682 5683 5683 5683 5683 5683 5683 5682 5682 5682 5682 5682 5679 5676 5674 5674 5672 5670 5667 5666 5664 5662 5660 5658 5657 5655 5653 5652 5650 5649 5647 5645 5642
5664 5668 5671 5674 5676 5677 5678 5677 5677 5677 5676 5676 5675 5675 5674 5674 5673 5672 5669 5666 5663 5662 5660 5658 5656 5655 5653 5652 5651 5649 5648 5646 5645 5644 5642 5640 5638 5635
5655 5659 5663 5666 5668 5670 5671 5672 5672 5672 5671 5671 5670 5670 5669 5670 5669 5667 5663 5660 5655 5652 5652 5648 5647 5646 5644 5643 5643 5642 5641 5640 5639 5637 5635 5633 5631 5629
5647 5651 5655 5658 5660 5661 5663 5664 5665 5667 5669 5669 5667 5666 5666 5667 5665 5661 5658 5656 5652 5648 5646 5640 5638 5637 5636 5635 5635 5635 5634 5634 5633 5631 5629 5627 5625 5623
5639 5643 5646 5649 5652 5654 5655 5655 5657 5660 5663 5665 5665 5665 5666 5664 5663 5660 5655 5650 5645 5642 5642 5635 5631 5629 5628 5628 5628 5628 5628 5628 5627 5625 5623 5621 5619 5617
5632 5635 5638 5640 5644 5647 5648 5648 5650 5652 5656 5659 5661 5661 5661 5660 5658 5653 5648 5645 5639 5636 5636 5633 5627 5623 5622 5621 5622 5622 5622 5622 5621 5620 5618 5617 5615 5612
5625 5627 5631 5634 5637 5640 5642 5643 5643 5645 5649 5651 5652 5652 5652 5652 5652 5651 5649 5644 5638 5633 5633 5630 5624 5622 5618 5616 5617 5617 5617 5616 5615 5614 5614 5613 5611 5608
5619 5621 5624 5628 5631 5633 5636 5638 5639 5641 5642 5643 5643 5643 5643 5644 5644 5645 5645 5644 5639 5635 5634 5631 5625 5622 5619 5615 5613 5613 5613 5612 5611 5610 5609 5608 5607 5605
5614 5616 5619 5622 5625 5628 5630 5632 5634 5635 5635 5635 5635 5635 5635 5636 5637 5638 5638 5638 5639 5637 5635 5633 5628 5624 5619 5615 5612 5611 5609 5609 5608 5606 5605 5604 5603 5601
5611 5613 5616 5618 5621 5623 5625 5627 5629 5628 5628 5628 5628 5628 5630 5631 5633 5633 5632 5633 5632 5631 5630 5631 5630 5626 5622 5617 5613 5610 5608 5607 5606 5604 5603 5601 5600 5598
5609 5611 5613 5615 5617 5619 5621 5622 5623 5623 5624 5624 5624 5625 5626 5627 5627 5628 5627 5627 5625 5623 5624 5626 5627 5625 5620 5617 5614 5610 5608 5606 5605 5603 5602 5600 5598 5597
5609 5610 5611 5612 5613 5614 5616 5617 5619 5620 5620 5621 5622 5622 5622 5623 5623 5623 5623 5622 5620 5618 5617 5618 5619 5620 5619 5616 5611 5609 5607 5605 5604 5602 5600 5598 5597 5597
5611 5609 5609 5610 5611 5613 5614 5615 5616 5618 5619 5620 5620 5621 5621 5621 5620 5620 5620 5619 5617 5615 5614 5614 5614 5614 5612 5610 5610 5608 5605 5604 5603 5601 5599 5596 5596 5597
5612 5611 5610 5611 5612 5613 5615 5616 5616 5617 5619 5619 5620 5620 5620 5620 5619 5618 5617 5616 5614 5613 5612 5612 5612 5610 5608 5607 5607 5607 5605 5603 5601 5599 5598 5596 5595 5596
5614 5614 5614 5614 5615 5615 5616 5617 5617 5618 5619 5619 5620 5620 5620 5619 5618 5617 5616 5615 5613 5612 5610 5610 5610 5610 5608 5607 5606 5605 5605 5603 5600 5598 5597 5595 5595 5595
5618 5617 5617 5618 5618 5618 5618 5619 5619 5619 5620 5620 5620 5620 5620 5619 5618 5616 5615 5615 5613 5611 5610 5609 5610 5610 5608 5606 5603 5602 5603 5603 5602 5599 5597 5594 5592 5591
5622 5621 5621 5621 5621 5621 5621 5621 5621 5620 5620 5620 5620 5620 5620 5620 5619 5618 5616 5614 5613 5612 5611 5609 5608 5607 5605 5604 5602 5601 5600 5601 5600 5599 5597 5596 5592 5590
5627 5626 5625 5625 5624 5624 5624 5624 5623 5623 5622 5622 5622 5621 5621 5620 5620 5618 5617 5615 5614 5612 5610 5607 5605 5604 5603 5602 5600 5599 5599 5598 5597 5596 5597 5598 5596 5594